Wind_Speed
63 67 66 64 60 57 57 52 62 71 64 61 59 58 54 52 50 48 46 44 40 40 37 36 34 33 31 30 28 26 25 24 25 24 20 20 18 17 15 14 14 13 11 10 9
66 63 65 61 62 60 58 51 53 56 69 65 62 60 58 55 53 51 50 47 45 43 41 39 38 35 35 33 31 30 29 32 30 26 19 21 20 17 16 14 14 13 12 11 11
64 62 71 61 62 61 60 64 56 52 56 65 67 65 61 59 56 54 52 50 48 47 45 43 41 40 39 37 35 36 32 39 32 23 25 23 22 19 17 16 14 13 16 15 13
66 64 62 62 63 61 60 62 65 53 54 58 65 67 66 63 60 59 55 52 51 49 47 46 44 43 42 41 40 38 38 38 36 30 29 27 21 22 20 19 17 17 18 17 15
66 65 64 60 66 60 61 64 55 55 53 54 56 62 64 66 64 61 56 54 53 52 49 49 48 48 47 44 45 43 43 43 40 34 32 28 25 25 22 22 21 20 20 20 18
65 66 65 63 61 62 62 62 61 57 61 51 54 58 62 63 65 65 61 58 56 55 53 52 51 52 52 50 50 47 48 48 44 37 36 32 30 29 24 26 22 21 23 21 19
66 65 65 65 64 64 62 64 64 64 64 62 55 55 59 58 61 64 62 61 59 58 56 55 55 54 53 53 54 52 50 51 46 42 40 37 33 27 27 28 26 25 22 20 17
69 67 65 66 66 65 64 58 62 67 69 67 72 57 57 57 60 59 60 63 61 60 59 58 57 55 57 58 55 55 53 53 49 45 43 39 32 30 31 31 28 26 24 21 20
71 70 68 66 65 65 61 66 61 61 65 61 62 69 57 57 59 56 56 60 62 62 61 61 60 60 60 61 60 58 57 55 52 48 46 42 34 34 36 33 30 29 27 25 22
72 71 70 70 67 65 64 66 66 64 63 64 64 63 71 59 61 57 56 60 63 60 60 61 62 63 63 63 63 58 58 54 54 49 48 45 40 37 39 37 34 31 30 27 25
70 72 72 71 70 68 66 67 67 67 69 66 67 61 69 62 60 64 59 59 61 61 60 60 62 64 63 62 60 57 57 58 56 53 53 49 46 40 42 39 35 32 33 31 29
65 72 72 71 71 70 68 67 64 63 65 66 66 66 66 70 62 61 60 58 57 58 58 61 62 61 60 61 60 57 56 59 57 56 57 53 50 47 46 41 39 40 38 34 35
63 64 71 70 69 72 69 66 64 63 64 65 69 62 68 63 69 62 60 60 57 55 55 56 57 55 56 56 57 56 55 57 58 56 58 58 55 50 48 49 47 43 40 40 41
60 63 62 67 70 73 69 66 63 60 64 69 69 70 68 68 62 66 59 61 63 58 57 58 57 54 55 55 55 56 52 53 55 58 60 59 61 56 54 52 51 49 46 46 46
41 51 62 61 66 72 68 64 61 51 53 69 68 65 65 66 63 61 64 61 60 63 61 57 55 54 53 51 51 52 52 54 55 58 59 60 64 58 57 55 53 50 51 51 51
24 27 41 58 62 65 65 63 59 57 60 58 68 67 62 62 65 61 64 62 64 60 64 60 61 57 54 56 56 55 53 54 57 58 64 61 62 63 58 55 54 54 54 54 54
27 26 23 32 49 63 65 64 62 65 63 51 56 65 63 61 63 62 61 63 64 63 62 61 61 62 58 58 57 58 58 58 61 63 64 59 62 61 58 58 57 55 55 56 58
35 36 32 27 26 53 67 69 64 63 73 71 69 63 59 56 60 58 59 62 61 62 59 60 60 63 65 59 59 57 57 59 59 62 63 60 65 62 58 58 60 59 59 60 60
37 36 33 32 26 35 58 69 66 65 68 62 57 52 65 65 63 59 60 58 55 56 59 62 60 61 59 57 55 57 61 55 56 60 65 66 67 67 63 65 64 63 61 62 61
33 38 36 36 35 34 53 60 61 59 57 59 63 65 51 50 55 60 63 63 60 57 57 61 62 62 59 62 58 55 53 54 58 61 61 66 64 66 67 67 67 67 66 66 66
32 40 40 42 42 38 37 60 65 64 68 68 46 65 70 64 52 57 57 60 56 55 55 58 59 60 63 65 64 66 60 56 53 54 57 67 71 70 69 71 71 70 70 67 67
32 34 34 38 42 40 31 27 71 63 74 62 63 53 64 68 68 62 59 58 54 51 54 53 55 58 59 59 57 59 60 62 65 68 68 68 73 61 63 65 67 67 66 64 62
33 35 37 38 38 36 34 28 47 73 78 68 48 35 52 55 63 61 52 49 47 46 46 46 52 54 57 59 63 65 63 63 63 63 64 68 70 57 63 63 62 62 62 59 61
30 35 40 47 41 41 37 35 35 74 73 68 67 62 47 38 45 55 59 56 45 44 44 45 49 53 57 54 54 56 56 57 55 55 54 59 67 60 62 58 57 58 58 61 63
33 32 32 33 33 38 41 38 31 64 72 48 60 58 46 62 39 47 39 39 43 41 41 45 48 51 54 54 53 58 61 56 55 56 61 62 60 60 57 56 59 60 61 60 57
25 29 32 35 40 43 43 44 40 57 68 53 53 43 40 46 64 49 43 49 54 54 52 55 56 54 52 49 52 56 57 59 63 63 64 65 66 60 55 56 56 56 61 59 58
17 20 17 14 21 39 47 46 44 45 74 59 37 56 38 37 52 57 46 36 37 41 44 47 48 50 53 50 54 59 53 55 57 60 59 61 55 53 55 51 53 57 60 64 62
Wind_Direction
232 234 237 231 231 238 229 240 226 222 223 220 223 226 223 221 219 219 219 220 219 220 219 219 220 219 219 220 220 219 219 218 224 225 221 231 234 236 240 243 240 234 229 222 216
229 230 233 237 234 239 234 229 239 238 222 222 222 225 226 224 223 221 220 220 220 222 222 222 222 223 222 221 223 223 223 226 226 228 238 242 234 235 236 237 236 230 232 229 222
236 236 230 232 234 239 236 236 230 237 240 223 224 223 225 227 226 224 224 223 223 223 224 225 226 226 227 224 225 227 228 234 235 235 240 233 232 232 234 236 237 231 236 237 234
233 234 236 238 229 233 236 233 230 229 234 241 222 224 223 225 228 227 225 227 227 227 227 228 230 230 231 230 230 231 232 237 237 238 233 226 231 233 237 241 239 242 242 242 244
230 232 234 237 227 233 233 234 232 224 232 235 241 226 223 225 227 229 229 230 232 230 230 231 233 233 233 236 236 235 237 240 239 233 227 222 225 233 240 247 245 246 247 249 251
229 230 231 232 232 230 233 233 229 236 228 232 237 240 227 223 226 229 229 230 232 234 232 233 233 236 237 238 241 240 240 243 238 227 224 221 225 236 238 249 245 248 249 251 253
229 228 229 231 232 230 232 230 233 229 235 227 231 238 240 233 227 229 231 230 232 235 236 235 236 237 241 242 243 242 244 243 233 226 223 225 228 234 234 241 244 246 248 249 249
229 228 228 229 231 235 232 231 231 232 231 235 232 229 239 237 238 234 230 233 232 234 237 238 239 241 243 244 245 248 246 239 234 229 228 228 225 229 234 238 242 242 244 245 242
229 229 227 228 229 231 233 229 233 233 238 236 237 224 227 234 237 239 239 239 234 233 235 238 240 241 242 246 247 247 243 239 236 236 232 231 226 229 234 236 237 240 244 244 244
226 228 228 227 227 228 229 231 231 232 233 232 233 235 228 226 233 235 236 238 241 238 239 239 241 242 244 245 248 251 249 246 243 239 238 234 231 227 235 237 236 239 245 249 251
228 227 227 228 227 228 228 230 233 231 233 236 235 238 236 226 228 232 237 236 235 238 240 244 244 245 248 250 250 250 248 243 242 243 236 235 236 229 238 240 242 242 248 250 253
234 228 226 227 228 227 229 230 233 239 239 237 239 237 237 232 230 234 234 237 238 238 238 241 245 245 247 247 248 246 245 244 244 242 242 238 236 235 238 243 244 244 248 253 258
237 233 229 227 227 228 226 229 232 234 238 238 239 236 233 236 231 231 235 236 237 238 238 240 242 242 243 245 246 245 244 246 246 246 244 243 239 237 238 242 244 247 250 252 256
232 236 231 230 227 227 225 227 230 232 240 238 238 238 232 235 235 233 233 236 235 239 238 236 239 239 240 241 243 244 244 245 246 247 245 247 244 241 241 243 248 250 253 256 259
221 231 233 230 232 230 224 225 227 228 221 239 236 238 238 237 237 235 235 238 237 235 239 239 239 243 240 242 245 246 246 245 245 247 248 246 249 242 244 245 247 252 254 257 262
218 228 231 228 224 228 225 224 220 219 229 245 242 240 240 238 240 235 234 234 236 235 237 236 237 240 241 241 242 243 245 246 247 247 247 246 250 247 246 252 253 256 258 260 262
220 227 241 228 221 219 220 219 216 214 213 220 234 237 241 241 241 240 239 238 237 237 236 240 240 239 243 244 244 246 246 247 248 249 251 253 252 256 256 256 258 258 260 265 266
231 237 240 242 228 213 214 213 212 211 218 225 234 239 241 239 240 239 241 239 240 241 240 240 242 243 242 248 249 248 251 252 256 257 256 254 253 252 259 261 264 266 265 267 269
228 228 226 230 233 209 209 212 213 213 220 221 227 237 237 239 236 236 241 240 240 243 248 245 246 247 246 249 249 249 249 255 256 256 258 256 255 256 258 263 262 264 267 268 268
224 225 229 226 229 216 206 210 205 209 213 215 224 231 230 240 236 234 234 238 238 239 243 246 246 246 249 247 249 250 250 249 250 251 253 257 257 258 259 259 260 263 264 267 271
217 218 230 228 223 223 221 214 200 210 205 210 223 235 237 237 242 241 241 243 241 241 244 246 248 250 252 251 251 252 254 255 255 255 259 258 258 260 261 264 265 268 269 271 275
223 224 223 226 223 228 232 230 207 201 205 209 226 231 234 236 239 242 244 248 242 245 248 256 254 254 256 258 255 255 253 252 254 256 256 260 258 261 264 269 271 271 272 273 274
215 211 225 230 233 232 231 231 219 204 208 203 204 220 230 235 237 240 240 246 247 243 243 247 249 252 252 252 252 253 257 260 262 262 262 264 260 261 265 267 271 275 275 276 274
218 217 225 233 231 234 233 231 234 211 209 217 220 225 231 240 238 242 244 244 240 247 248 247 251 253 255 259 260 258 257 258 257 255 261 262 269 264 270 271 269 269 271 271 273
207 228 236 242 239 236 235 237 245 209 203 206 214 215 219 226 226 226 225 232 236 233 250 258 259 259 256 254 254 258 256 252 250 255 256 266 262 268 267 267 267 268 270 272 274
234 236 241 245 238 235 237 235 232 220 204 204 199 210 241 254 233 241 254 252 256 255 254 259 264 258 252 247 250 251 252 257 258 258 256 263 263 268 266 266 267 268 270 270 267
219 213 204 226 232 233 238 239 235 228 217 207 207 217 238 242 241 243 240 239 247 252 253 252 253 254 250 251 249 248 246 253 259 260 261 260 268 261 259 262 265 266 264 265 267
Height
5674 5681 5687 5694 5700 5708 5715 5724 5731 5741 5748 5755 5763 5769 5777 5784 5790 5795 5801 5807 5814 5817 5822 5826 5830 5834 5837 5841 5845 5848 5851 5853 5853 5855 5858 5860 5862 5864 5864 5865 5867 5868 5869 5869 5870
5663 5670 5677 5685 5690 5696 5705 5713 5723 5729 5737 5745 5753 5761 5768 5775 5782 5788 5794 5800 5806 5812 5817 5821 5824 5829 5832 5836 5840 5843 5847 5846 5847 5851 5855 5857 5858 5861 5862 5863 5865 5866 5867 5867 5868
5651 5659 5666 5673 5683 5688 5694 5703 5712 5720 5725 5734 5743 5751 5758 5766 5774 5781 5787 5793 5799 5805 5811 5816 5820 5823 5827 5832 5836 5838 5843 5838 5845 5851 5850 5853 5854 5856 5858 5860 5862 5864 5864 5865 5866
5641 5649 5655 5662 5671 5680 5686 5693 5700 5709 5717 5722 5730 5739 5748 5756 5764 5771 5780 5786 5792 5798 5805 5810 5814 5817 5821 5825 5828 5833 5836 5837 5839 5844 5845 5847 5852 5852 5855 5857 5859 5860 5861 5863 5864
5629 5637 5645 5653 5660 5669 5677 5684 5692 5698 5707 5714 5720 5726 5736 5747 5756 5764 5773 5780 5786 5792 5798 5802 5807 5810 5814 5819 5821 5826 5829 5830 5832 5838 5839 5843 5845 5847 5851 5853 5855 5856 5857 5859 5860
5617 5626 5634 5642 5651 5659 5667 5675 5682 5690 5696 5702 5710 5716 5725 5735 5745 5752 5763 5770 5776 5783 5789 5793 5799 5802 5805 5810 5814 5820 5822 5823 5827 5830 5833 5837 5839 5842 5847 5847 5850 5852 5852 5855 5856
5603 5613 5623 5632 5640 5648 5656 5664 5672 5679 5686 5691 5698 5707 5713 5728 5733 5743 5751 5760 5767 5773 5779 5784 5788 5793 5799 5802 5805 5810 5816 5816 5819 5824 5825 5829 5834 5839 5842 5842 5844 5846 5848 5850 5853
5590 5600 5611 5620 5629 5637 5645 5652 5661 5669 5673 5680 5687 5696 5706 5717 5723 5732 5740 5748 5756 5763 5769 5774 5780 5785 5787 5791 5798 5801 5806 5809 5813 5816 5818 5823 5830 5833 5834 5836 5839 5841 5844 5846 5847
5578 5588 5598 5608 5618 5627 5635 5641 5649 5657 5663 5669 5677 5685 5698 5709 5715 5724 5729 5735 5744 5752 5759 5764 5769 5774 5778 5781 5787 5790 5796 5800 5805 5808 5810 5815 5823 5825 5827 5829 5833 5835 5838 5840 5842
5564 5574 5585 5596 5607 5615 5624 5630 5637 5645 5654 5661 5669 5679 5685 5701 5707 5713 5719 5725 5732 5739 5746 5754 5759 5763 5769 5772 5776 5785 5788 5795 5797 5803 5803 5807 5813 5818 5818 5822 5826 5829 5832 5834 5837
5550 5562 5572 5583 5595 5604 5612 5619 5628 5636 5644 5653 5662 5672 5676 5689 5695 5703 5711 5715 5721 5729 5737 5744 5749 5754 5762 5767 5772 5777 5779 5782 5788 5792 5792 5797 5802 5811 5811 5814 5819 5823 5824 5827 5829
5536 5548 5560 5570 5581 5591 5600 5611 5623 5629 5635 5643 5650 5662 5663 5676 5688 5694 5702 5709 5714 5722 5728 5735 5741 5748 5752 5757 5761 5766 5769 5772 5778 5781 5783 5789 5793 5800 5803 5808 5812 5812 5815 5819 5819
5523 5535 5547 5558 5567 5576 5593 5604 5611 5616 5622 5631 5637 5647 5656 5665 5676 5687 5693 5698 5704 5711 5719 5725 5733 5738 5741 5747 5751 5757 5760 5763 5768 5772 5774 5777 5782 5790 5797 5796 5798 5804 5808 5809 5809
5513 5522 5534 5543 5552 5566 5584 5594 5602 5611 5608 5614 5623 5632 5644 5653 5664 5676 5682 5688 5696 5704 5709 5713 5722 5727 5731 5735 5740 5744 5750 5753 5756 5759 5763 5765 5768 5778 5784 5790 5791 5795 5798 5799 5800
5505 5511 5521 5535 5545 5557 5577 5584 5593 5601 5596 5598 5611 5621 5634 5646 5656 5667 5671 5677 5685 5693 5698 5710 5715 5718 5725 5730 5733 5737 5740 5742 5745 5746 5748 5755 5756 5769 5772 5778 5783 5787 5788 5790 5790
5500 5505 5511 5522 5535 5545 5560 5575 5582 5584 5583 5589 5600 5611 5624 5637 5641 5652 5657 5668 5675 5680 5688 5695 5700 5706 5715 5717 5721 5724 5728 5730 5731 5731 5733 5746 5746 5754 5764 5770 5773 5775 5777 5780 5781
5496 5500 5505 5511 5525 5533 5545 5558 5561 5561 5578 5581 5588 5604 5617 5625 5630 5638 5650 5658 5665 5673 5682 5688 5692 5699 5703 5708 5713 5715 5717 5718 5716 5720 5725 5737 5736 5748 5752 5756 5760 5766 5769 5768 5767
5490 5495 5501 5506 5510 5520 5531 5541 5541 5557 5566 5579 5587 5597 5602 5613 5617 5630 5636 5645 5657 5665 5672 5674 5681 5688 5697 5698 5703 5707 5708 5709 5711 5711 5715 5721 5722 5733 5741 5744 5746 5750 5751 5753 5755
5483 5488 5494 5500 5505 5510 5517 5523 5533 5549 5562 5574 5581 5582 5589 5598 5610 5619 5625 5638 5648 5658 5664 5668 5671 5677 5684 5687 5691 5694 5692 5704 5699 5701 5698 5705 5716 5719 5731 5731 5734 5736 5738 5738 5740
5479 5483 5489 5494 5498 5503 5508 5514 5527 5542 5556 5567 5571 5576 5584 5591 5598 5605 5614 5627 5638 5645 5651 5651 5657 5664 5668 5673 5677 5679 5686 5684 5684 5686 5686 5694 5702 5712 5717 5719 5719 5720 5722 5724 5726
5473 5479 5484 5488 5491 5496 5503 5509 5523 5533 5545 5560 5563 5567 5575 5583 5593 5599 5608 5618 5628 5636 5640 5642 5645 5651 5653 5660 5668 5671 5671 5673 5675 5677 5678 5683 5689 5703 5707 5701 5705 5708 5708 5711 5711
5468 5474 5478 5481 5487 5493 5502 5509 5519 5524 5535 5548 5555 5559 5566 5576 5583 5590 5598 5612 5620 5626 5628 5636 5634 5638 5646 5650 5653 5652 5656 5659 5659 5666 5665 5666 5670 5696 5693 5688 5689 5692 5694 5695 5694
5463 5469 5474 5477 5482 5491 5497 5504 5508 5519 5528 5537 5542 5555 5562 5568 5575 5580 5593 5602 5605 5611 5619 5624 5621 5625 5630 5635 5638 5637 5645 5647 5649 5648 5647 5650 5666 5689 5672 5675 5676 5675 5676 5675 5676
5461 5466 5471 5472 5481 5486 5491 5496 5499 5510 5517 5528 5538 5547 5555 5561 5567 5574 5583 5592 5596 5603 5605 5610 5612 5614 5618 5630 5626 5627 5633 5635 5636 5634 5639 5637 5652 5667 5660 5663 5662 5659 5660 5659 5660
5460 5463 5466 5471 5477 5482 5483 5490 5491 5497 5513 5520 5531 5547 5550 5556 5559 5565 5575 5580 5586 5594 5596 5597 5603 5606 5611 5614 5613 5614 5616 5619 5618 5626 5621 5635 5632 5651 5656 5649 5641 5641 5644 5644 5646
5459 5461 5462 5465 5467 5471 5473 5485 5492 5497 5506 5515 5524 5537 5540 5547 5556 5566 5571 5572 5577 5583 5587 5586 5592 5594 5598 5604 5602 5601 5603 5604 5609 5613 5608 5615 5616 5638 5638 5633 5631 5630 5624 5629 5632
5457 5457 5458 5459 5458 5459 5470 5479 5485 5490 5498 5512 5524 5534 5536 5542 5546 5551 5560 5564 5569 5573 5576 5577 5580 5582 5582 5593 5587 5581 5595 5597 5595 5594 5602 5598 5612 5617 5616 5623 5621 5615 5606 5609 5613